Starlink 11588

operational
NORAD ID: 63319 Int'l Des: 2025-057 Owner: SPXS Country: US Constellation: starlink
LEOCIRCULAR

Starlink 11588について

説明を読み込み中...

リアルタイム位置

3D地球を読み込み中...

次回通過

高度履歴

Altitude vs Time

uPlot chart will show altitude changes over time

軌道要素

1 63319U 25057N 25259.31205459 .00246925 00000-0 18684-2 0 9990
2 63319 42.9999 235.5200 0002005 277.4550 82.6090 15.70875805 29754
Epoch: Sep 16, 2025 • Age: 14 hours

現在のステータス

高度 355.5 km
速度 7.70 km/s
衛星直下点 -3.10°S, 85.34°W
打ち上げ日 Mar 18, 2025
運用期間 0.4 years
タイプ internet

技術仕様

分類 Payload
質量 960.00 kg
乾燥質量 910.00 kg
総質量 960.00 kg
長さ 0.30 m
直径 4.10 m
スパン 29.00 m
形状 Box + pan
製造者 SPXS
バスタイプ Starlink V2MD
フェーズステータス In Orbit
所有者/国 SPXS/US

大規模コンステレーション

Loading constellations...